Columbus, GA

2:56 PM EDT on September 29, 2016 (GMT -0400)
Columbus Metro

Weather History for KCSG - May, 2013

Change the Weather History Date:

Friday, May 10, 2013

  Actual Average Record
Temperature  
Mean Temperature 69 °F 71 °F  
Max Temperature 78 °F 83 °F 96 °F (1936)
Min Temperature 59 °F 60 °F 43 °F (1923)
Degree Days  
Heating Degree Days 0 0  
Month to date heating degree days 25 6  
Since 1 July heating degree days 1798 2118  
Cooling Degree Days 4 7  
Month to date cooling degree days 20 56  
Year to date cooling degree days 146 160  
Growing Degree Days 19 (Base 50)    
Moisture  
Dew Point 59 °F    
Average Humidity 70    
Maximum Humidity 90    
Minimum Humidity 50    
Precipitation  
Precipitation 0.00 in 0.11 in 2.29 in (2006)
Month to date precipitation 1.66 1.07  
Year to date precipitation 24.41 18.37  
Sea Level Pressure  
Sea Level Pressure 30.04 in    
Wind  
Wind Speed 3 mph (WSW)    
Max Wind Speed 13 mph    
Max Gust Speed 16 mph    
Visibility 10 miles    
Events      
T = Trace of Precipitation, MM = Missing Value Source: NWS Daily Summary

Daily Weather History Graph

Daily Weather History Graph

Search for Another Location

Airport or City:

Trip Planner

Search our weather history database for the weather conditions in past years. The results will help you decide how hot, cold, wet, or windy it might be!

Date:

Astronomy

May. 10, 2013 Rise Set
Actual Time 6:44 AM EDT 8:27 PM EDT
Civil Twilight 6:18 AM EDT 8:54 PM EDT
Nautical Twilight 5:45 AM EDT 9:26 PM EDT
Astronomical Twilight 5:12 AM EDT 10:01 PM EDT
Moon 7:08 AM EDT (5/10) 9:15 PM EDT (5/10)
Length of Visible Light 14h 36m
Length of Day
13h 42m
New Moon, 0% of the Moon is Illuminated
May 10
New Moon
May 18
First Quarter
May 25
Full
May 31
Last Quarter
Jun 8
New

Hourly Weather History & Observations

Time (EDT) Temp. Dew Point Humidity Pressure Visibility Wind Dir Wind Speed Gust Speed Precip Events Conditions
12:51 AM 68.0 °F 59.0 °F 73% 30.09 in 10.0 mi Calm Calm - N/A   Clear
1:51 AM 66.0 °F 59.0 °F 78% 30.08 in 10.0 mi Calm Calm - N/A   Clear
2:51 AM 64.9 °F 57.9 °F 78% 30.06 in 10.0 mi Calm Calm - N/A   Clear
3:51 AM 64.0 °F 57.9 °F 80% 30.05 in 10.0 mi Calm Calm - N/A   Clear
4:51 AM 63.0 °F 57.9 °F 84% 30.04 in 10.0 mi Calm Calm - N/A   Clear
5:51 AM 62.1 °F 57.9 °F 86% 30.02 in 10.0 mi Calm Calm - N/A   Clear
6:51 AM 61.0 °F 57.0 °F 87% 30.05 in 8.0 mi Calm Calm - N/A   Clear
7:51 AM 62.1 °F 57.9 °F 86% 30.07 in 8.0 mi Calm Calm - N/A   Clear
8:51 AM 66.9 °F 59.0 °F 76% 30.06 in 10.0 mi Calm Calm - N/A   Clear
9:51 AM 71.1 °F 61.0 °F 70% 30.11 in 10.0 mi WNW 6.9 mph - N/A   Clear
10:51 AM 73.9 °F 57.9 °F 57% 30.11 in 10.0 mi West 8.1 mph - N/A   Clear
11:51 AM 75.0 °F 60.1 °F 60% 30.11 in 10.0 mi WNW 5.8 mph - N/A   Clear
12:51 PM 75.9 °F 57.9 °F 54% 30.10 in 10.0 mi West 4.6 mph - N/A   Clear
1:51 PM 75.9 °F 59.0 °F 56% 30.08 in 10.0 mi WSW 6.9 mph - N/A   Clear
2:51 PM 75.9 °F 60.1 °F 58% 30.04 in 10.0 mi SSW 4.6 mph - N/A   Scattered Clouds
3:51 PM 77.0 °F 57.0 °F 50% 30.03 in 10.0 mi SW 10.4 mph - N/A   Clear
4:51 PM 75.9 °F 57.0 °F 52% 30.00 in 10.0 mi SSW 9.2 mph - N/A   Clear
5:51 PM 75.9 °F 57.9 °F 54% 30.00 in 10.0 mi SW 8.1 mph - N/A   Clear
6:51 PM 77.0 °F 57.9 °F 52% 29.97 in 10.0 mi SW 5.8 mph - N/A   Clear
7:51 PM 75.0 °F 57.9 °F 55% 29.96 in 10.0 mi South 5.8 mph - N/A   Clear
8:51 PM 73.0 °F 59.0 °F 61% 29.98 in 10.0 mi Calm Calm - N/A   Partly Cloudy
9:51 PM 72.0 °F 60.1 °F 66% 29.99 in 10.0 mi Calm Calm - N/A   Mostly Cloudy
10:51 PM 71.1 °F 61.0 °F 70% 29.99 in 10.0 mi Calm Calm - N/A   Overcast
11:51 PM 69.1 °F 61.0 °F 75% 30.00 in 10.0 mi Calm Calm - N/A   Mostly Cloudy